ONEWEB-0059, 45162

Orbit data source: Space-Track

ONEWEB-0059, 45162 is a payload satellite owned by One Web (UK) in LEO that was launched on Thu, 06 Feb 2020 UTC via a SOYUZ-2-1B launch vehicle from the Tyuratam Missile And Space Complex (TTMTR). Payload-class satellites include a variety of spacecraft equipped with specific instruments for various scientific and technological missions. These include communications satellites like Starlink; space stations such as the ISS; scientific satellites like the Hubble; Earth observation satellites from companies like Planet Labs, Umbra, and HawkEye 360; GPS; miniature CubeSats for education and research; and military/defense satellites.

Loading next visibility...
Identifier
45162, 2020-008AH
Orbit
LEO
Country
Flag of UKUK
Related business
Manufacturer
One Web
Mission
Operational Commercial Communications
Bus & Motor
ARROW, Unknown motor
Mass
148 kg wet, ~140 kg dry
Launch date (UTC)
2020-02-06 (6 years ago)
Launch vehicle
SOYUZ-2-1B
Launch site
Tyuratam Missile And Space Complex (TTMTR)
Object type
Payload
Rocket body
Debris
Shape & HBR
Trap Box + 2 Pan, 6.7 m
Radar Cross Section
3.464 m², Large (>1 m²)

Expand to show TLE details & history
Last TLE update: 21 hours ago

TLE from 21 hours ago
0 ONEWEB-0059
1 45162U 20008AH  25310.39603617 -.00000627  00000-0 -18335-2 0  9993
2 45162  87.8789  80.6980 0001565 101.4848 258.6456 13.10369194279147
Epoch: 2025-11-06T09:30Z
TLE epoch observation values (Epoch: 2025-11-06T09:30:17.525Z)
Latitude
0.00009°
Longitude
-107.72998°
Altitude
1,224.853 km
Speed
7.242 km/s
True Right ascension
05h 22m 47s
True Declination
0° 00' 00"
Sunlit
Object was in full shadow at epoch
Visualization orbit readout
Latitude
Unknown
Longitude
Unknown
Altitude
Unknown
Speed
Unknown
Apparent Right ascension
Unknown
Apparent Declination
Unknown
Sunlit
N/A
Visualization observer readout
Local Sidereal Time
03:04:31
Azimuth
Unknown
Elevation
Unknown
Doppler factor
Unknown
Orbital elements
Apogee altitude
1,220.04 km
Perigee altitude
1,217.662 km
Semi-major axis
7,596.988 km
Eccentricity
0.00016
Inclination
87.8789°
RAAN
80.698°
Arg. of periapsis
101.4848°
True anomaly
258.62802°
Mean anomaly
258.6456°
Eccentric anomaly
258.63681°
Mean motion
3.27779 °/min
Orbital period
109.83 mins
BSTAR
-0.0018335
Loading maneuver chart data...
Computing Atmospheric mass density...
Loading historical data...
Loading historical data...
Loading historical data...
Loading historical data...
Loading historical data...
Loading historical data...
Loading historical data...

Documentation

Showing up to 5 results
|